QPF
0.00 0.00 0.00 0.00 0.06 0.01 0.00 0.01 0.01 0.01 0.00 0.00 0.00 0.01 0.00 0.03 0.05 0.02 0.00 0.00 0.00 0.00 0.00 0.00 0.00 0.00 0.00 0.00 0.00 0.00 0.00 0.00 0.00 0.00 0.00 0.00 0.03 0.02 0.00 0.00 0.01 0.00 0.02 0.03 0.00 0.01 0.01 0.01 0.01
0.00 0.00 0.01 0.01 0.04 0.00 0.00 0.00 0.00 0.00 0.00 0.00 0.00 0.02 0.01 0.00 0.00 0.00 0.00 0.00 0.00 0.00 0.00 0.00 0.00 0.00 0.00 0.00 0.00 0.00 0.00 0.00 0.00 0.01 0.00 0.01 0.01 0.00 0.00 0.01 0.01 0.01 0.01 0.01 0.00 0.00 0.00 0.01 0.02
0.00 0.00 0.01 0.03 0.00 0.00 0.00 0.00 0.00 0.00 0.00 0.00 0.00 0.01 0.04 0.00 0.00 0.00 0.00 0.00 0.00 0.00 0.00 0.00 0.00 0.00 0.00 0.00 0.00 0.00 0.00 0.01 0.01 0.01 0.00 0.00 0.00 0.00 0.00 0.03 0.03 0.00 0.00 0.00 0.00 0.01 0.01 0.01 0.01
0.00 0.00 0.00 0.00 0.00 0.00 0.00 0.00 0.00 0.00 0.00 0.00 0.00 0.00 0.00 0.00 0.00 0.00 0.00 0.00 0.00 0.00 0.00 0.00 0.00 0.00 0.00 0.00 0.00 0.00 0.00 0.00 0.00 0.00 0.00 0.00 0.00 0.00 0.00 0.02 0.04 0.01 0.00 0.00 0.00 0.00 0.01 0.02 0.00
0.00 0.00 0.00 0.00 0.00 0.00 0.00 0.00 0.00 0.00 0.00 0.00 0.00 0.00 0.00 0.00 0.00 0.00 0.00 0.00 0.00 0.00 0.00 0.00 0.00 0.00 0.00 0.00 0.00 0.00 0.01 0.01 0.01 0.00 0.00 0.00 0.00 0.00 0.00 0.01 0.00 0.00 0.00 0.00 0.00 0.00 0.00 0.02 0.00
0.00 0.00 0.00 0.00 0.00 0.00 0.00 0.00 0.00 0.00 0.00 0.00 0.00 0.00 0.00 0.00 0.00 0.00 0.00 0.00 0.00 0.00 0.00 0.00 0.00 0.00 0.00 0.00 0.00 0.00 0.01 0.00 0.00 0.00 0.00 0.00 0.00 0.00 0.00 0.01 0.01 0.02 0.02 0.01 0.00 0.00 0.00 0.03 0.01
0.00 0.00 0.00 0.00 0.00 0.00 0.00 0.00 0.01 0.00 0.00 0.00 0.00 0.00 0.00 0.00 0.00 0.00 0.00 0.00 0.00 0.00 0.00 0.00 0.00 0.00 0.00 0.00 0.00 0.00 0.00 0.00 0.00 0.01 0.00 0.01 0.02 0.01 0.00 0.00 0.00 0.00 0.01 0.02 0.04 0.00 0.01 0.03 0.00
0.00 0.00 0.00 0.00 0.00 0.00 0.00 0.00 0.00 0.00 0.00 0.00 0.01 0.01 0.00 0.00 0.00 0.00 0.00 0.00 0.00 0.00 0.00 0.00 0.00 0.00 0.00 0.00 0.00 0.00 0.00 0.00 0.00 0.00 0.00 0.00 0.00 0.00 0.00 0.00 0.00 0.00 0.02 0.05 0.01 0.00 0.03 0.03 0.00
0.00 0.00 0.00 0.00 0.00 0.00 0.01 0.00 0.00 0.04 0.01 0.00 0.00 0.00 0.00 0.00 0.00 0.00 0.00 0.00 0.00 0.00 0.00 0.00 0.00 0.00 0.00 0.00 0.00 0.00 0.00 0.00 0.00 0.00 0.00 0.00 0.00 0.00 0.00 0.01 0.00 0.00 0.00 0.01 0.01 0.00 0.01 0.05 0.00
0.00 0.00 0.00 0.00 0.00 0.00 0.00 0.01 0.01 0.02 0.14 0.02 0.00 0.00 0.00 0.00 0.00 0.00 0.00 0.00 0.00 0.00 0.00 0.00 0.00 0.00 0.00 0.00 0.00 0.00 0.00 0.00 0.00 0.00 0.02 0.01 0.02 0.01 0.00 0.00 0.00 0.00 0.00 0.00 0.00 0.00 0.00 0.03 0.00
0.00 0.00 0.00 0.00 0.00 0.00 0.00 0.00 0.01 0.02 0.03 0.01 0.00 0.00 0.00 0.00 0.00 0.00 0.00 0.00 0.00 0.00 0.00 0.00 0.00 0.00 0.00 0.00 0.00 0.00 0.00 0.00 0.00 0.03 0.04 0.00 0.00 0.00 0.00 0.00 0.00 0.00 0.00 0.00 0.01 0.01 0.00 0.00 0.00
0.00 0.00 0.00 0.00 0.00 0.00 0.00 0.00 0.00 0.01 0.00 0.00 0.00 0.00 0.00 0.00 0.00 0.00 0.00 0.00 0.00 0.00 0.00 0.00 0.00 0.00 0.00 0.00 0.00 0.00 0.00 0.00 0.00 0.02 0.04 0.01 0.00 0.00 0.01 0.00 0.00 0.00 0.03 0.03 0.06 0.05 0.01 0.01 0.00
0.00 0.00 0.00 0.00 0.00 0.00 0.00 0.00 0.00 0.00 0.00 0.00 0.00 0.00 0.00 0.00 0.00 0.00 0.00 0.00 0.00 0.00 0.00 0.00 0.00 0.00 0.00 0.00 0.00 0.00 0.00 0.00 0.00 0.00 0.02 0.02 0.00 0.04 0.03 0.01 0.01 0.00 0.00 0.00 0.03 0.03 0.01 0.01 0.02
0.00 0.00 0.00 0.00 0.00 0.00 0.00 0.00 0.00 0.00 0.00 0.00 0.00 0.00 0.00 0.00 0.00 0.00 0.00 0.00 0.00 0.00 0.00 0.00 0.00 0.00 0.00 0.00 0.00 0.00 0.00 0.00 0.00 0.00 0.00 0.01 0.01 0.12 0.06 0.05 0.15 0.02 0.00 0.00 0.00 0.01 0.07 0.04 0.00
0.00 0.00 0.00 0.00 0.00 0.00 0.00 0.00 0.00 0.00 0.00 0.00 0.00 0.00 0.00 0.00 0.00 0.00 0.01 0.00 0.00 0.00 0.00 0.00 0.00 0.00 0.00 0.00 0.00 0.00 0.00 0.00 0.00 0.00 0.00 0.00 0.00 0.11 0.12 0.08 0.10 0.04 0.00 0.00 0.00 0.00 0.05 0.06 0.04
0.00 0.00 0.00 0.00 0.00 0.00 0.00 0.00 0.00 0.00 0.00 0.00 0.00 0.00 0.00 0.00 0.00 0.00 0.00 0.00 0.00 0.01 0.02 0.04 0.03 0.01 0.00 0.00 0.00 0.00 0.00 0.00 0.00 0.00 0.00 0.00 0.00 0.02 0.09 0.01 0.03 0.05 0.02 0.03 0.01 0.01 0.06 0.02 0.05
0.00 0.00 0.00 0.00 0.00 0.00 0.00 0.01 0.00 0.00 0.00 0.00 0.00 0.00 0.00 0.00 0.00 0.00 0.00 0.00 0.00 0.01 0.13 0.06 0.02 0.02 0.02 0.04 0.01 0.00 0.00 0.00 0.00 0.00 0.00 0.00 0.00 0.02 0.06 0.02 0.04 0.12 0.02 0.04 0.17 0.10 0.06 0.04 0.04
0.00 0.00 0.00 0.00 0.00 0.00 0.00 0.00 0.00 0.00 0.00 0.00 0.01 0.01 0.01 0.00 0.00 0.00 0.00 0.00 0.03 0.02 0.24 0.15 0.02 0.00 0.00 0.05 0.05 0.03 0.01 0.00 0.00 0.00 0.00 0.00 0.00 0.03 0.22 0.09 0.09 0.15 0.03 0.02 0.08 0.01 0.07 0.06 0.15
0.00 0.00 0.00 0.00 0.00 0.00 0.00 0.00 0.00 0.00 0.00 0.00 0.01 0.01 0.03 0.00 0.00 0.00 0.00 0.00 0.00 0.01 0.06 0.09 0.02 0.00 0.02 0.04 0.03 0.01 0.00 0.00 0.01 0.00 0.01 0.00 0.00 0.06 0.22 0.25 0.23 0.21 0.09 0.12 0.13 0.11 0.13 0.29 0.27
0.00 0.00 0.00 0.00 0.00 0.00 0.00 0.00 0.00 0.00 0.00 0.00 0.00 0.01 0.02 0.00 0.00 0.00 0.00 0.00 0.00 0.00 0.00 0.01 0.01 0.03 0.06 0.01 0.00 0.01 0.01 0.01 0.03 0.02 0.00 0.00 0.00 0.04 0.07 0.04 0.04 0.04 0.06 0.09 0.14 0.13 0.16 0.22 0.27
0.00 0.00 0.00 0.00 0.00 0.00 0.00 0.00 0.00 0.00 0.00 0.00 0.00 0.00 0.01 0.00 0.00 0.00 0.00 0.00 0.00 0.00 0.00 0.00 0.00 0.02 0.01 0.03 0.01 0.01 0.03 0.04 0.02 0.01 0.00 0.00 0.00 0.00 0.00 0.00 0.00 0.00 0.00 0.02 0.12 0.18 0.21 0.17 0.24
0.00 0.00 0.00 0.00 0.00 0.00 0.00 0.00 0.00 0.00 0.00 0.00 0.00 0.00 0.00 0.00 0.00 0.00 0.00 0.00 0.00 0.00 0.00 0.00 0.00 0.00 0.00 0.00 0.02 0.04 0.05 0.04 0.01 0.00 0.01 0.00 0.00 0.00 0.00 0.00 0.00 0.00 0.00 0.02 0.04 0.12 0.16 0.31 0.21
0.00 0.00 0.00 0.00 0.00 0.00 0.00 0.00 0.00 0.00 0.02 0.01 0.00 0.00 0.00 0.00 0.00 0.00 0.00 0.00 0.00 0.00 0.00 0.00 0.00 0.00 0.00 0.00 0.03 0.06 0.06 0.04 0.00 0.00 0.01 0.00 0.02 0.00 0.01 0.00 0.00 0.01 0.00 0.04 0.09 0.09 0.10 0.15 0.26
0.00 0.00 0.00 0.00 0.00 0.00 0.00 0.00 0.00 0.00 0.00 0.02 0.00 0.00 0.00 0.00 0.00 0.00 0.00 0.00 0.00 0.00 0.00 0.00 0.00 0.00 0.00 0.00 0.00 0.05 0.09 0.09 0.08 0.04 0.01 0.00 0.00 0.01 0.03 0.01 0.01 0.01 0.00 0.01 0.06 0.10 0.13 0.13 0.22
0.00 0.00 0.00 0.00 0.00 0.00 0.00 0.00 0.00 0.00 0.00 0.00 0.00 0.00 0.00 0.00 0.00 0.00 0.00 0.00 0.00 0.00 0.00 0.00 0.00 0.00 0.00 0.00 0.00 0.02 0.05 0.04 0.02 0.00 0.01 0.00 0.00 0.00 0.00 0.00 0.00 0.01 0.01 0.01 0.02 0.04 0.13 0.18 0.21
0.00 0.00 0.00 0.00 0.00 0.00 0.00 0.00 0.00 0.00 0.00 0.00 0.00 0.00 0.00 0.00 0.00 0.00 0.00 0.00 0.00 0.00 0.00 0.00 0.00 0.00 0.00 0.00 0.00 0.01 0.01 0.00 0.01 0.02 0.00 0.00 0.00 0.00 0.00 0.00 0.00 0.01 0.01 0.01 0.01 0.01 0.04 0.21 0.35
0.00 0.00 0.00 0.00 0.00 0.00 0.00 0.00 0.00 0.00 0.00 0.00 0.00 0.00 0.00 0.00 0.00 0.00 0.00 0.00 0.00 0.00 0.00 0.00 0.00 0.00 0.00 0.00 0.00 0.00 0.00 0.00 0.01 0.00 0.00 0.00 0.00 0.00 0.00 0.00 0.00 0.00 0.01 0.01 0.01 0.01 0.00 0.03 0.12
0.00 0.00 0.00 0.00 0.00 0.00 0.00 0.00 0.00 0.00 0.00 0.00 0.00 0.00 0.00 0.00 0.00 0.00 0.00 0.00 0.00 0.00 0.00 0.00 0.00 0.00 0.00 0.00 0.00 0.00 0.00 0.00 0.00 0.00 0.00 0.00 0.00 0.00 0.00 0.00 0.00 0.00 0.00 0.00 0.02 0.01 0.01 0.00 0.01
0.00 0.00 0.00 0.00 0.00 0.00 0.00 0.00 0.00 0.00 0.00 0.00 0.00 0.00 0.00 0.00 0.00 0.00 0.00 0.00 0.00 0.00 0.00 0.00 0.00 0.00 0.01 0.00 0.00 0.00 0.00 0.00 0.00 0.00 0.00 0.00 0.00 0.00 0.00 0.00 0.00 0.00 0.00 0.00 0.01 0.01 0.01 0.03 0.02
0.00 0.00 0.00 0.00 0.00 0.00 0.00 0.00 0.00 0.00 0.00 0.00 0.00 0.00 0.00 0.00 0.00 0.00 0.00 0.00 0.00 0.00 0.00 0.00 0.00 0.00 0.00 0.00 0.00 0.00 0.00 0.00 0.00 0.00 0.00 0.00 0.00 0.00 0.01 0.00 0.00 0.00 0.00 0.00 0.00 0.01 0.02 0.04 0.04
MSLP
1005.56 1005.22 1004.96 1003.94 1003.79 1003.04 1002.24 1001.45 1000.73 1000.72 1000.15 1000.74 1001.20 1002.05 1003.01 1004.31 1005.60 1007.23 1007.52 1007.81 1009.21 1010.74 1011.92 1012.47 1012.94 1013.30 1013.62 1014.01 1014.37 1014.63 1014.89 1015.05 1015.27 1015.43 1015.61 1015.82 1016.02 1016.04 1016.15 1016.22 1016.33 1016.44 1016.68 1016.64 1016.86 1017.01 1017.05 1017.18 1017.25
1004.77 1003.93 1003.38 1002.91 1001.56 1001.14 1001.14 1000.92 1000.70 1000.51 1000.51 1000.89 1001.55 1002.49 1003.35 1004.03 1004.99 1006.28 1006.89 1008.17 1009.38 1010.59 1011.72 1012.52 1013.17 1013.48 1013.83 1014.19 1014.47 1014.78 1014.97 1015.24 1015.44 1015.60 1015.81 1016.03 1016.16 1016.24 1016.31 1016.42 1016.65 1016.78 1016.77 1016.92 1017.06 1017.17 1017.31 1017.43 1017.52
1004.94 1003.49 1002.68 1001.02 1000.45 1000.45 1000.58 1000.21 1000.06 1000.37 1000.15 1000.70 1001.47 1002.81 1004.01 1005.00 1005.76 1006.13 1007.40 1008.49 1009.46 1010.59 1011.19 1012.73 1013.36 1013.73 1014.01 1014.29 1014.60 1014.90 1015.16 1015.34 1015.56 1015.73 1015.91 1016.12 1016.26 1016.43 1016.51 1016.70 1016.82 1016.97 1017.10 1017.16 1017.32 1017.36 1017.50 1017.71 1017.84
1003.18 1001.94 1001.55 1000.01 1000.11 1000.18 1000.04 1000.24 999.60 1000.02 1000.43 1000.87 1001.40 1003.36 1004.47 1005.19 1005.66 1006.78 1007.68 1008.54 1009.56 1010.29 1011.60 1012.99 1013.50 1013.88 1014.19 1014.47 1014.77 1015.09 1015.29 1015.46 1015.67 1015.87 1016.01 1016.18 1016.37 1016.58 1016.83 1017.01 1017.12 1017.19 1017.36 1017.44 1017.53 1017.66 1017.78 1017.91 1018.03
1002.11 1001.87 1000.81 999.85 1000.08 1000.00 999.96 1001.07 1000.34 1000.16 1000.84 1001.27 1002.31 1003.99 1004.70 1005.32 1006.22 1007.15 1007.69 1008.51 1009.24 1010.63 1012.11 1013.09 1013.66 1014.01 1014.36 1014.67 1014.97 1015.22 1015.34 1015.58 1015.84 1016.04 1016.16 1016.32 1016.48 1016.67 1016.91 1017.03 1017.18 1017.36 1017.50 1017.67 1017.77 1017.91 1018.08 1018.16 1018.27
1000.93 1000.23 999.70 1000.42 1000.22 1000.03 999.95 1001.15 1000.44 1000.60 1001.31 1001.90 1002.90 1004.21 1005.15 1005.65 1006.52 1007.19 1007.59 1008.31 1009.25 1010.87 1012.01 1013.14 1013.81 1014.18 1014.55 1014.86 1015.15 1015.38 1015.58 1015.85 1016.07 1016.21 1016.32 1016.43 1016.63 1016.83 1016.97 1017.11 1017.34 1017.47 1017.60 1017.77 1017.97 1018.09 1018.26 1018.35 1018.35
999.64 999.31 999.51 999.62 999.92 1000.20 1000.04 1001.31 1002.29 1001.47 1001.79 1001.89 1002.78 1004.29 1005.44 1005.93 1006.50 1006.90 1007.34 1007.99 1009.22 1010.64 1012.03 1013.18 1013.74 1014.27 1014.70 1015.04 1015.32 1015.56 1015.73 1015.99 1016.23 1016.34 1016.40 1016.45 1016.62 1016.84 1016.97 1017.08 1017.27 1017.40 1017.58 1017.75 1017.98 1018.11 1018.25 1018.40 1018.40
998.73 998.99 999.34 1000.05 999.93 1000.36 1000.44 1001.09 1001.57 1003.46 1002.84 1002.06 1002.73 1004.06 1005.09 1005.81 1006.36 1006.73 1007.25 1007.93 1009.05 1010.56 1011.93 1012.89 1013.59 1014.15 1014.61 1015.04 1015.36 1015.56 1015.81 1016.06 1016.28 1016.40 1016.52 1016.62 1016.65 1016.78 1016.91 1017.00 1017.15 1017.31 1017.42 1017.56 1017.72 1017.92 1018.06 1018.26 1018.35
999.07 999.76 999.40 999.77 999.79 1000.41 1001.69 1004.17 1005.21 1006.80 1004.98 1002.14 1002.06 1003.09 1004.46 1005.81 1006.25 1006.67 1007.27 1008.12 1009.16 1010.35 1011.42 1012.11 1013.08 1013.66 1013.83 1014.43 1015.15 1015.55 1015.79 1016.03 1016.33 1016.51 1016.56 1016.53 1016.27 1016.51 1016.75 1016.97 1017.06 1017.23 1017.36 1017.45 1017.61 1017.77 1017.87 1017.96 1018.10
999.14 999.37 999.06 999.42 999.36 1000.03 1002.66 1005.82 1006.82 1007.39 1005.05 1003.89 1002.88 1003.91 1004.83 1005.62 1006.22 1006.68 1007.28 1008.25 1008.97 1009.95 1010.78 1011.38 1012.16 1012.77 1012.98 1013.28 1014.52 1014.95 1015.31 1015.82 1016.14 1016.25 1016.56 1016.42 1016.20 1016.42 1016.76 1016.97 1017.01 1017.09 1017.18 1017.29 1017.40 1017.59 1017.76 1017.84 1017.68
998.75 998.78 998.87 999.31 1000.01 999.98 1002.71 1004.40 1005.05 1005.70 1004.79 1002.58 1003.07 1004.04 1004.82 1005.59 1006.17 1006.68 1007.28 1008.13 1008.82 1009.58 1010.04 1010.54 1011.19 1011.79 1012.05 1013.25 1013.83 1013.98 1014.36 1014.99 1015.16 1015.43 1015.96 1016.22 1016.21 1016.39 1016.38 1016.50 1016.60 1016.86 1017.05 1017.08 1016.95 1017.28 1017.28 1017.23 1017.14
998.88 998.87 999.03 999.14 999.56 999.78 1000.35 1003.19 1003.59 1002.56 1001.81 1002.26 1003.06 1003.81 1004.64 1005.33 1005.91 1006.42 1007.01 1007.80 1008.66 1009.55 1009.81 1010.09 1010.87 1011.55 1011.85 1012.50 1012.64 1012.79 1013.29 1014.20 1014.75 1015.20 1015.35 1015.52 1015.49 1015.91 1016.23 1016.45 1016.59 1016.80 1016.97 1016.90 1017.11 1017.25 1017.24 1017.17 1016.85
998.56 998.37 998.43 998.42 998.71 999.35 1000.03 1000.55 1002.64 1003.12 1001.47 1002.17 1002.91 1003.59 1004.24 1004.76 1005.45 1006.03 1006.65 1007.35 1008.37 1009.36 1009.80 1010.12 1010.69 1011.43 1011.88 1012.30 1012.45 1012.59 1012.48 1013.41 1013.65 1014.39 1014.88 1015.05 1015.28 1015.75 1015.92 1016.24 1016.31 1016.37 1016.30 1016.45 1016.67 1016.86 1016.79 1016.51 1016.59
999.08 998.77 998.30 998.42 998.39 998.90 999.84 1000.26 1000.85 1001.81 1001.28 1002.24 1002.87 1002.99 1003.27 1003.98 1004.75 1005.61 1006.26 1006.93 1007.99 1008.96 1009.59 1010.18 1010.87 1011.53 1011.99 1012.58 1012.77 1012.94 1012.66 1012.73 1012.99 1013.59 1014.16 1014.56 1015.00 1015.26 1015.44 1015.77 1015.75 1015.97 1015.98 1016.08 1016.15 1016.34 1016.33 1016.37 1015.94
999.04 998.85 998.32 998.21 998.36 998.77 999.95 1001.85 1002.25 1001.06 1001.66 1002.65 1003.16 1003.21 1002.76 1003.33 1004.49 1005.18 1006.01 1006.84 1007.67 1008.93 1009.45 1009.91 1010.99 1011.52 1012.29 1012.88 1013.01 1013.13 1013.00 1012.64 1012.77 1013.14 1013.43 1013.86 1014.13 1014.41 1014.79 1015.17 1015.36 1015.43 1015.46 1015.70 1015.96 1015.86 1016.13 1016.18 1015.72
998.90 998.81 998.15 998.18 998.58 998.79 1000.23 1002.92 1001.86 1002.04 1001.47 1002.45 1003.36 1003.76 1004.06 1003.81 1004.37 1005.17 1006.26 1006.61 1008.32 1009.94 1010.55 1011.50 1011.12 1011.72 1012.16 1012.37 1012.97 1012.89 1012.90 1012.67 1012.72 1012.95 1013.31 1013.39 1013.53 1013.85 1014.32 1014.79 1014.77 1014.68 1014.93 1015.05 1015.36 1015.55 1015.80 1015.82 1015.56
998.71 998.30 998.54 998.67 998.29 998.78 998.91 1001.00 1001.42 1000.57 1001.10 1003.48 1003.58 1003.74 1003.81 1004.25 1004.40 1005.13 1005.83 1006.53 1007.69 1010.22 1011.88 1011.89 1011.92 1011.82 1012.02 1012.06 1012.31 1012.63 1012.60 1012.67 1012.52 1012.56 1012.55 1012.56 1012.97 1013.27 1013.64 1014.06 1014.21 1014.26 1014.43 1014.75 1014.80 1014.99 1015.01 1015.16 1015.27
999.80 999.25 999.03 998.25 998.16 998.57 998.78 999.83 999.82 1000.04 1000.47 1002.41 1003.72 1006.90 1004.74 1004.06 1003.99 1004.79 1005.91 1006.45 1007.39 1009.73 1010.10 1011.13 1011.50 1011.76 1011.63 1012.35 1012.27 1012.48 1012.68 1012.46 1011.91 1011.91 1012.08 1012.12 1012.61 1012.67 1013.30 1013.49 1013.67 1013.61 1014.27 1014.42 1014.38 1014.45 1014.60 1014.78 1014.68
999.58 999.40 999.21 998.80 998.17 998.59 998.66 999.08 999.60 999.71 1000.33 1001.69 1003.54 1005.44 1006.18 1005.23 1003.48 1003.99 1005.17 1005.94 1007.31 1008.90 1009.54 1010.39 1011.26 1011.60 1011.86 1011.83 1012.07 1012.33 1012.27 1011.91 1011.79 1012.10 1012.19 1012.50 1012.52 1012.69 1012.95 1013.73 1013.62 1013.47 1013.84 1013.78 1013.62 1013.74 1014.01 1014.27 1014.43
999.00 998.50 997.97 998.22 998.51 998.73 998.48 998.37 998.60 999.02 999.95 1000.89 1002.46 1004.90 1005.03 1003.82 1003.67 1003.54 1004.69 1005.38 1006.40 1008.04 1009.13 1010.11 1010.41 1010.79 1011.23 1011.50 1011.91 1011.77 1011.80 1011.93 1011.82 1012.35 1012.31 1012.69 1012.85 1012.87 1012.96 1013.39 1013.52 1013.40 1013.44 1013.35 1013.27 1013.28 1013.43 1013.45 1013.66
998.32 997.79 998.02 998.95 999.31 998.37 998.39 998.39 998.75 999.35 1000.03 1000.51 1000.72 1002.04 1002.20 1001.73 1002.06 1002.99 1004.25 1005.00 1005.96 1007.01 1007.99 1008.93 1009.64 1010.25 1010.99 1011.28 1011.63 1011.65 1011.83 1012.09 1012.37 1012.36 1012.51 1012.72 1012.92 1013.03 1013.22 1013.08 1013.24 1013.35 1013.31 1013.11 1012.88 1012.84 1012.96 1012.84 1012.45
997.93 997.69 997.89 998.20 998.39 997.92 998.28 998.68 999.67 1001.10 1002.70 1001.10 1000.50 1000.26 1000.32 1000.50 1001.43 1002.15 1003.27 1004.49 1005.55 1006.66 1007.82 1008.67 1009.29 1010.04 1010.75 1011.28 1011.54 1012.00 1012.21 1012.31 1012.14 1012.06 1012.10 1012.55 1012.36 1012.38 1012.34 1012.30 1012.41 1012.66 1012.71 1012.61 1012.39 1012.31 1012.12 1012.05 1012.03
997.42 998.21 998.34 998.04 997.94 997.95 998.18 999.09 999.38 1001.75 1003.13 1001.65 1000.30 1000.00 999.82 999.79 1000.63 1001.78 1002.83 1003.95 1004.96 1006.42 1007.87 1008.94 1009.60 1010.22 1010.62 1011.23 1011.72 1011.96 1012.27 1012.41 1011.91 1012.01 1012.09 1011.97 1012.04 1011.68 1011.46 1011.66 1012.17 1012.28 1012.36 1012.26 1012.11 1011.85 1011.51 1011.31 1011.30
997.20 999.04 998.25 998.19 998.08 997.89 997.22 998.63 999.34 1001.02 1001.06 1001.46 1000.20 999.13 999.34 999.23 1000.20 1001.26 1002.18 1003.60 1004.93 1006.35 1007.68 1008.83 1009.78 1010.46 1010.89 1011.17 1011.57 1012.04 1012.42 1012.61 1012.44 1012.56 1012.31 1012.08 1011.68 1011.49 1012.09 1011.95 1012.17 1012.15 1012.17 1012.01 1011.89 1011.59 1011.16 1010.69 1010.49
997.00 997.12 997.39 997.83 997.93 999.25 999.73 999.82 998.94 998.92 998.73 998.29 998.40 998.43 998.95 999.37 1000.23 1001.40 1002.56 1003.78 1005.15 1006.43 1007.54 1008.75 1009.75 1010.41 1010.68 1010.96 1011.21 1011.56 1012.04 1012.17 1012.31 1012.32 1012.20 1012.19 1011.99 1011.87 1012.03 1012.21 1012.17 1012.17 1012.16 1011.88 1011.64 1011.27 1010.88 1010.27 1009.95
996.60 996.80 996.91 997.56 1000.54 1001.18 1001.37 1000.14 999.65 997.81 997.47 997.74 997.46 997.99 998.88 999.55 1000.44 1001.63 1003.00 1004.29 1005.35 1006.44 1007.53 1008.57 1009.74 1010.37 1010.82 1011.06 1011.32 1011.69 1011.98 1012.16 1012.32 1012.46 1012.35 1012.55 1012.32 1012.39 1012.60 1012.59 1012.35 1012.15 1011.88 1011.69 1011.41 1011.04 1010.79 1010.47 1009.87
996.58 996.53 996.62 997.08 1000.74 1001.22 999.66 999.02 998.48 997.44 997.45 997.65 997.32 997.77 998.88 999.86 1000.68 1001.82 1003.06 1004.33 1005.42 1006.41 1007.50 1008.54 1009.63 1010.30 1010.65 1010.93 1011.49 1011.86 1012.11 1012.19 1012.36 1012.48 1012.61 1012.75 1012.72 1012.77 1012.86 1012.80 1012.49 1012.06 1011.69 1011.38 1011.15 1010.85 1010.63 1010.55 1010.33
996.31 996.91 996.57 996.87 998.59 999.30 998.38 998.42 998.44 998.25 997.96 997.67 997.66 998.20 998.93 1000.00 1001.02 1001.92 1002.91 1004.10 1005.31 1006.34 1007.39 1008.29 1009.41 1010.06 1010.34 1010.91 1011.41 1011.86 1012.06 1012.17 1012.37 1012.46 1012.69 1012.83 1012.90 1013.00 1012.88 1012.73 1012.48 1012.13 1011.76 1011.44 1011.06 1010.78 1010.52 1010.50 1010.38
995.90 996.16 997.16 996.72 996.90 996.85 997.35 998.29 998.89 998.78 997.93 997.82 997.85 998.48 999.23 1000.18 1001.19 1002.07 1003.11 1004.29 1005.41 1006.35 1007.45 1008.33 1009.17 1009.70 1010.16 1010.66 1011.22 1011.55 1011.76 1012.08 1012.43 1012.49 1012.65 1012.76 1012.88 1012.88 1012.74 1012.69 1012.59 1012.36 1012.01 1011.64 1011.27 1010.77 1010.57 1010.54 1010.35
995.06 995.34 995.88 995.55 996.34 996.39 997.10 999.47 1000.00 1000.14 998.60 997.84 998.00 998.74 999.22 1000.24 1001.28 1002.36 1003.48 1004.67 1005.80 1006.75 1007.58 1008.30 1008.77 1009.21 1009.89 1010.62 1011.19 1011.62 1011.61 1011.79 1012.11 1012.30 1012.37 1012.52 1012.67 1012.88 1012.81 1012.62 1012.60 1012.43 1012.17 1011.77 1011.49 1011.23 1011.03 1010.83 1010.52
Thickness
5865 5865 5868 5859 5817 5813 5800 5823 5848 5831 5840 5854 5856 5838 5826 5819 5795 5766 5826 5829 5819 5806 5795 5790 5786 5783 5779 5775 5772 5768 5765 5763 5761 5761 5760 5758 5756 5757 5758 5757 5756 5756 5755 5756 5754 5753 5753 5752 5751
5875 5876 5870 5847 5828 5812 5812 5839 5831 5843 5852 5858 5852 5841 5824 5816 5832 5822 5825 5826 5818 5808 5797 5790 5785 5782 5779 5776 5773 5769 5766 5763 5761 5760 5759 5757 5756 5756 5757 5757 5755 5755 5755 5755 5754 5754 5753 5752 5751
5874 5882 5850 5845 5841 5815 5814 5843 5846 5851 5863 5853 5843 5844 5824 5810 5827 5828 5829 5825 5818 5809 5803 5790 5785 5781 5779 5776 5774 5770 5768 5765 5763 5762 5760 5758 5757 5757 5757 5756 5756 5754 5754 5753 5753 5753 5753 5751 5749
5879 5876 5863 5848 5831 5843 5844 5848 5862 5853 5857 5859 5851 5819 5832 5839 5829 5830 5830 5827 5818 5812 5800 5789 5784 5780 5778 5776 5774 5771 5769 5767 5765 5763 5762 5760 5759 5757 5755 5755 5753 5753 5752 5752 5751 5751 5750 5750 5748
5887 5863 5821 5841 5838 5851 5864 5843 5861 5850 5847 5846 5842 5813 5816 5836 5840 5833 5830 5826 5819 5809 5796 5788 5783 5780 5777 5775 5773 5771 5771 5769 5767 5765 5763 5762 5761 5758 5756 5755 5754 5752 5751 5750 5750 5749 5748 5747 5747
5862 5872 5847 5819 5834 5855 5867 5847 5868 5854 5849 5845 5833 5819 5815 5839 5832 5831 5832 5826 5821 5806 5796 5787 5782 5780 5777 5775 5772 5771 5770 5769 5767 5765 5765 5763 5761 5759 5758 5757 5755 5753 5752 5750 5748 5747 5746 5746 5745
5867 5857 5850 5851 5842 5844 5861 5858 5827 5851 5846 5844 5849 5812 5820 5827 5834 5836 5833 5830 5821 5808 5796 5787 5783 5779 5776 5774 5772 5771 5770 5768 5766 5766 5766 5765 5763 5760 5759 5758 5757 5755 5753 5751 5749 5748 5746 5746 5745
5890 5878 5852 5845 5841 5837 5868 5871 5869 5841 5842 5869 5860 5814 5810 5828 5837 5837 5834 5828 5821 5808 5797 5789 5784 5780 5777 5774 5772 5772 5770 5768 5766 5766 5766 5765 5765 5763 5761 5759 5758 5757 5756 5754 5753 5752 5749 5747 5745
5905 5847 5838 5841 5846 5850 5861 5812 5835 5808 5821 5861 5861 5849 5842 5839 5839 5832 5826 5821 5815 5808 5801 5796 5788 5784 5783 5779 5774 5772 5771 5769 5765 5763 5765 5766 5767 5765 5763 5760 5759 5757 5756 5756 5755 5754 5752 5750 5748
5874 5849 5855 5875 5880 5868 5841 5813 5805 5801 5802 5829 5843 5847 5844 5838 5831 5823 5818 5810 5809 5805 5803 5802 5795 5790 5789 5788 5781 5779 5775 5769 5766 5765 5763 5766 5768 5766 5763 5761 5759 5758 5757 5757 5756 5755 5754 5752 5752
5883 5858 5878 5874 5877 5885 5832 5817 5840 5817 5807 5847 5835 5835 5837 5832 5826 5821 5818 5813 5809 5808 5808 5808 5803 5798 5797 5790 5787 5788 5783 5777 5778 5776 5770 5766 5765 5765 5766 5765 5763 5759 5757 5758 5759 5757 5758 5757 5757
5867 5883 5881 5880 5883 5880 5871 5840 5832 5831 5856 5863 5853 5846 5837 5829 5825 5822 5818 5814 5810 5806 5807 5810 5805 5800 5798 5796 5796 5796 5792 5784 5785 5780 5775 5772 5773 5771 5769 5768 5764 5759 5759 5760 5758 5758 5757 5758 5761
5878 5888 5894 5895 5890 5886 5886 5875 5854 5808 5870 5867 5857 5847 5838 5834 5830 5829 5825 5821 5814 5804 5806 5809 5808 5802 5800 5798 5797 5797 5798 5789 5788 5783 5776 5777 5775 5773 5770 5767 5766 5764 5764 5763 5762 5760 5759 5761 5761
5881 5884 5892 5894 5892 5892 5875 5873 5867 5852 5874 5861 5853 5849 5849 5842 5838 5832 5827 5819 5813 5809 5807 5807 5805 5802 5798 5794 5795 5793 5795 5795 5793 5789 5785 5782 5778 5775 5775 5772 5769 5768 5767 5766 5766 5763 5763 5762 5765
5885 5866 5885 5889 5891 5885 5879 5828 5828 5874 5870 5856 5851 5850 5854 5850 5843 5835 5829 5821 5818 5809 5808 5810 5803 5802 5795 5790 5790 5790 5790 5793 5794 5793 5790 5786 5784 5781 5778 5775 5773 5772 5770 5768 5766 5766 5763 5762 5765
5870 5871 5854 5884 5886 5888 5867 5791 5838 5857 5870 5849 5843 5850 5847 5847 5844 5836 5828 5829 5814 5795 5791 5792 5800 5796 5794 5794 5786 5788 5790 5792 5792 5792 5789 5788 5787 5784 5781 5778 5778 5777 5775 5773 5771 5770 5766 5764 5766
5867 5846 5849 5857 5891 5882 5879 5831 5846 5880 5876 5834 5840 5850 5849 5844 5845 5843 5837 5832 5824 5796 5782 5787 5789 5792 5795 5795 5795 5789 5792 5791 5791 5791 5792 5793 5789 5787 5783 5780 5779 5779 5778 5776 5775 5772 5768 5769 5767
5822 5834 5841 5858 5878 5881 5872 5847 5866 5879 5881 5862 5834 5793 5844 5846 5847 5847 5837 5836 5834 5806 5799 5793 5792 5792 5799 5793 5793 5793 5792 5792 5795 5795 5794 5792 5789 5790 5784 5783 5782 5782 5778 5777 5778 5775 5774 5772 5770
5853 5844 5840 5858 5883 5871 5866 5862 5860 5871 5880 5863 5835 5803 5809 5832 5857 5859 5845 5840 5831 5818 5808 5803 5795 5792 5791 5790 5791 5791 5790 5793 5799 5792 5792 5788 5786 5785 5784 5780 5781 5781 5779 5779 5781 5779 5776 5771 5770
5856 5858 5866 5871 5877 5868 5867 5867 5881 5882 5878 5876 5845 5820 5818 5840 5844 5859 5850 5847 5838 5822 5813 5804 5802 5802 5801 5799 5797 5796 5794 5793 5794 5789 5788 5784 5780 5777 5777 5778 5779 5780 5779 5780 5780 5779 5775 5774 5773
5861 5863 5860 5840 5852 5876 5867 5855 5867 5881 5880 5881 5884 5858 5839 5855 5864 5862 5851 5848 5843 5835 5827 5820 5814 5810 5805 5804 5799 5797 5793 5791 5786 5786 5784 5782 5776 5772 5772 5776 5778 5778 5779 5778 5779 5778 5775 5772 5776
5842 5879 5871 5860 5851 5833 5871 5815 5844 5831 5816 5862 5877 5882 5879 5877 5873 5868 5859 5851 5845 5838 5833 5825 5819 5812 5807 5803 5797 5790 5784 5780 5786 5788 5789 5783 5781 5779 5780 5781 5781 5780 5780 5779 5780 5781 5779 5777 5773
5860 5868 5862 5865 5857 5856 5854 5832 5849 5838 5807 5827 5870 5879 5883 5884 5878 5868 5862 5858 5854 5843 5831 5822 5817 5812 5808 5802 5796 5792 5785 5786 5791 5789 5786 5786 5785 5785 5786 5785 5782 5781 5779 5779 5778 5778 5780 5781 5777
5886 5845 5859 5861 5857 5830 5866 5843 5831 5824 5818 5822 5862 5881 5883 5890 5880 5876 5870 5863 5852 5846 5835 5824 5814 5808 5805 5803 5798 5792 5786 5782 5781 5780 5781 5782 5786 5786 5781 5781 5781 5780 5778 5778 5777 5778 5780 5782 5782
5870 5857 5823 5815 5825 5806 5834 5817 5843 5864 5873 5880 5877 5882 5885 5885 5877 5870 5862 5855 5848 5839 5833 5825 5816 5807 5806 5803 5800 5796 5790 5787 5783 5782 5782 5779 5780 5781 5780 5779 5778 5777 5777 5778 5778 5778 5778 5781 5782
5857 5858 5830 5798 5745 5762 5813 5791 5819 5883 5892 5893 5895 5891 5885 5878 5872 5863 5857 5851 5845 5839 5831 5824 5813 5806 5803 5801 5798 5794 5790 5786 5782 5779 5779 5776 5777 5777 5777 5775 5776 5777 5779 5778 5779 5778 5778 5777 5779
5847 5839 5874 5846 5803 5787 5827 5845 5866 5886 5882 5884 5888 5886 5877 5871 5866 5858 5854 5850 5844 5837 5830 5822 5812 5805 5803 5799 5794 5789 5787 5784 5780 5779 5777 5774 5774 5774 5773 5773 5774 5777 5778 5779 5779 5778 5776 5775 5774
5857 5866 5839 5846 5782 5775 5822 5830 5823 5852 5860 5874 5876 5873 5874 5870 5863 5859 5855 5850 5844 5838 5831 5824 5813 5805 5803 5797 5792 5787 5785 5783 5780 5778 5773 5771 5772 5770 5770 5770 5772 5774 5776 5777 5777 5777 5777 5773 5772
5848 5842 5836 5853 5848 5824 5821 5824 5858 5849 5869 5868 5875 5873 5870 5865 5860 5856 5852 5847 5841 5836 5827 5819 5811 5805 5800 5795 5789 5783 5781 5779 5776 5773 5771 5770 5770 5769 5768 5767 5766 5767 5769 5772 5773 5774 5774 5771 5769
5872 5859 5856 5837 5826 5855 5852 5808 5861 5863 5876 5881 5876 5872 5872 5867 5861 5855 5848 5842 5834 5827 5822 5815 5811 5807 5800 5793 5785 5777 5774 5774 5772 5770 5770 5770 5766 5763 5763 5764 5763 5764 5764 5765 5766 5766 5766 5765 5765